Wind_Speed
18 18 18 19 19 19 18 18 18 18 18 17 17 17 17 17 18 18 18 19 19 19 20 21 22 23 23 24 25 26 27 28 29 29 29 29 30 31 32 33 33 34 35
18 17 18 18 19 19 18 18 18 18 18 18 18 17 18 18 18 17 18 18 19 19 20 21 21 21 22 23 24 25 26 27 27 27 28 29 30 31 33 33 34 34 35
18 18 17 18 19 18 18 18 18 18 18 18 18 17 18 18 18 18 18 18 19 20 21 21 21 21 21 22 22 23 24 26 27 28 28 29 30 31 32 33 34 34 35
18 18 18 18 18 18 18 18 18 17 18 18 18 18 18 18 18 18 18 19 20 21 21 21 20 20 21 21 22 22 24 25 26 27 28 29 30 31 31 32 33 34 34
19 18 18 19 18 18 18 18 18 18 18 18 18 18 18 18 18 19 19 20 21 21 21 21 20 20 20 21 22 23 24 25 26 27 28 29 29 30 30 32 33 34 34
18 18 18 19 19 19 19 19 18 18 18 19 18 18 19 19 20 20 21 21 22 21 21 21 21 21 21 21 22 23 24 25 26 26 27 28 29 30 30 31 32 33 34
18 18 18 19 19 19 20 20 20 19 19 19 19 19 19 20 20 20 21 21 21 21 21 21 21 20 20 20 20 21 22 22 24 25 26 27 28 28 29 31 31 32 33
19 19 19 20 20 20 20 20 20 20 19 19 20 20 20 20 21 21 21 21 22 21 21 20 20 20 19 19 20 20 20 21 23 24 25 25 25 26 27 28 29 30 31
19 19 20 20 21 21 20 20 20 20 20 20 20 21 21 21 21 21 21 21 21 21 21 20 20 20 21 22 21 21 20 20 21 22 23 24 24 24 25 26 27 28 29
19 19 20 21 21 21 21 21 20 20 21 21 22 22 22 22 22 22 21 21 20 20 20 20 20 20 21 21 21 20 20 21 21 21 22 22 22 23 24 25 26 27 28
20 21 22 22 22 22 22 21 21 22 22 22 23 23 22 22 22 22 21 21 20 20 20 20 19 19 20 20 20 19 20 20 20 20 21 21 22 23 23 24 24 25 25
21 21 22 22 23 22 22 22 22 22 23 23 22 23 23 23 22 22 22 22 21 21 21 21 20 20 21 21 21 20 20 20 20 20 21 21 21 21 22 23 23 23 24
22 22 22 23 23 22 22 22 22 22 22 22 22 23 23 23 23 23 23 23 22 21 21 22 21 21 22 22 22 21 21 21 21 21 21 21 20 20 20 21 21 21 21
22 22 22 23 23 23 23 23 23 23 23 23 23 22 22 22 23 23 23 22 22 22 22 22 22 22 23 23 23 23 22 22 22 22 21 21 20 20 20 19 19 19 19
23 23 23 24 24 24 24 24 24 25 25 24 24 24 23 23 23 23 22 22 22 22 23 23 23 23 24 24 24 23 23 23 23 22 22 21 20 19 19 19 19 19 19
24 24 24 25 24 24 24 24 25 25 25 25 25 24 24 24 23 23 23 24 24 24 24 24 24 24 25 25 24 23 23 22 22 21 21 20 19 19 19 19 20 19 19
24 24 24 24 24 24 24 24 24 24 24 24 24 24 23 23 23 23 24 24 24 24 24 24 23 24 24 23 22 22 22 21 20 20 19 19 18 18 18 18 18 18 19
24 24 24 24 23 23 24 24 24 24 23 23 23 23 22 22 22 22 23 23 23 23 23 22 22 22 21 21 21 20 20 19 19 18 17 17 17 17 17 17 18 19 19
24 24 24 23 22 23 23 23 23 22 22 22 22 21 21 22 22 22 23 23 23 22 22 22 21 21 21 21 20 20 19 19 18 17 16 16 16 17 17 17 17 17 17
23 23 23 22 22 21 21 21 21 22 22 22 22 21 21 22 22 23 23 22 22 22 21 21 21 21 20 20 20 20 20 19 18 17 16 16 16 16 15 15 15 15 15
22 22 22 21 21 21 21 21 21 21 22 21 21 21 21 21 22 22 22 22 22 21 21 21 21 21 21 20 20 20 19 19 18 17 17 16 16 15 14 14 13 13 13
21 21 20 19 19 20 20 20 21 21 21 21 21 21 21 21 21 22 22 22 22 21 21 22 22 21 21 20 20 19 19 18 18 17 16 16 15 14 13 13 12 12 12
20 20 19 18 19 20 20 20 21 22 21 21 21 20 21 21 21 21 21 21 21 21 21 21 21 21 20 19 19 19 18 18 17 16 16 15 14 13 13 12 12 11 11
19 19 19 19 20 20 20 20 21 21 21 20 19 19 19 20 20 20 20 20 21 21 21 21 21 20 20 19 19 18 18 17 17 16 15 14 14 13 12 11 11 10 10
20 19 19 19 19 19 19 20 20 20 20 19 19 19 19 20 20 20 20 20 21 21 20 20 20 19 19 19 18 18 18 17 17 16 15 15 14 12 11 11 10 10 11
20 19 18 18 18 18 19 19 19 19 19 18 18 19 20 20 20 20 20 20 20 20 20 20 19 19 18 17 17 17 16 16 15 15 14 13 12 12 11 10 10 10 10
Wind_Direction
326 329 328 326 325 324 324 322 322 323 321 318 315 313 312 309 306 302 299 296 294 292 291 288 286 284 279 275 271 268 265 262 260 258 256 256 256 257 257 256 254 253 252
324 326 327 328 330 329 327 326 325 325 323 320 316 313 314 313 309 306 303 300 297 296 295 296 292 287 283 279 275 271 267 264 261 259 257 257 257 256 256 256 255 255 254
325 328 328 330 331 330 328 327 326 325 324 322 318 315 314 314 312 309 308 306 303 301 299 298 295 289 285 282 278 274 270 267 264 262 261 260 260 259 258 257 256 256 255
325 327 328 329 330 330 328 327 325 324 324 322 320 317 314 314 315 314 313 310 309 307 303 299 295 291 288 284 280 276 272 270 268 266 265 263 262 261 260 258 257 257 255
324 327 329 329 329 328 328 327 325 323 321 320 319 317 315 315 315 313 312 311 309 307 304 300 296 294 291 285 281 279 275 273 271 270 269 267 265 264 263 260 258 256 255
325 326 327 328 329 329 328 327 325 323 321 319 319 319 317 315 313 312 311 311 309 307 304 302 297 295 294 290 287 283 279 276 274 273 270 268 268 266 264 261 259 257 257
324 324 324 325 326 327 327 325 324 323 322 321 322 322 320 316 313 311 312 313 312 310 306 304 300 296 294 293 291 289 285 281 280 277 273 271 268 266 265 263 261 260 259
323 323 324 323 323 323 323 322 322 320 320 319 321 322 321 319 318 317 315 313 312 310 307 305 303 300 298 296 293 291 288 285 282 279 276 273 271 269 268 266 264 262 260
321 321 321 321 321 321 320 320 320 319 319 318 319 319 319 319 318 318 317 316 314 311 308 306 302 300 299 299 296 294 292 289 286 282 279 277 274 272 270 268 266 263 261
317 318 319 318 319 318 317 317 318 318 318 317 317 318 317 316 315 315 316 316 315 313 311 308 306 304 303 301 300 298 295 293 291 287 283 280 278 275 272 269 267 264 262
316 317 317 318 318 316 316 317 317 317 316 315 315 316 315 315 315 314 314 313 313 312 312 311 308 307 305 304 302 299 296 294 292 290 288 284 281 277 273 268 268 266 263
313 314 315 316 315 314 315 315 315 314 314 314 314 314 314 314 314 313 313 312 311 311 311 310 308 307 306 305 304 300 296 294 292 291 290 286 281 277 273 269 269 266 262
313 314 314 314 313 311 311 312 312 312 312 312 312 312 312 312 312 313 313 312 310 309 309 309 308 307 306 305 304 302 298 295 293 291 290 287 283 280 276 273 271 268 265
313 312 314 314 314 312 312 311 310 311 311 309 310 310 310 308 309 310 312 312 312 311 311 310 309 309 309 308 306 303 300 298 296 295 292 290 286 281 279 276 273 270 268
309 309 310 311 311 311 312 311 310 309 310 309 309 310 309 308 308 310 311 311 311 311 311 310 310 310 309 309 307 304 301 300 299 295 291 289 285 279 276 275 273 271 268
308 309 309 309 309 310 310 309 309 309 309 308 308 308 308 307 308 310 309 309 309 309 310 310 309 309 310 310 309 306 304 302 299 297 294 290 285 279 276 275 273 270 268
309 310 310 310 311 311 312 311 311 311 311 310 309 309 308 307 309 309 309 310 310 310 310 310 310 311 312 313 313 311 308 305 304 300 295 291 287 283 279 276 274 271 268
308 309 310 310 311 311 312 312 312 312 313 313 313 313 313 314 314 314 314 313 312 311 311 312 313 314 314 315 316 316 313 310 308 305 300 295 289 285 282 279 277 273 268
307 308 309 310 312 312 314 316 317 317 316 315 314 313 314 316 316 316 316 314 315 313 312 313 314 315 314 315 316 316 315 313 310 305 301 297 293 288 283 280 278 274 269
307 309 310 311 314 315 317 319 319 319 318 317 315 313 313 315 316 315 315 316 317 316 315 314 316 316 315 314 315 315 314 313 312 309 304 300 297 294 288 283 280 277 272
307 310 310 312 314 316 318 319 320 320 320 318 316 315 315 317 317 316 317 317 317 317 316 315 315 317 316 314 314 314 314 313 312 311 309 305 302 298 292 287 283 278 273
304 307 308 310 314 318 320 320 320 321 322 320 319 317 316 316 316 317 318 319 320 319 316 316 316 316 317 316 314 314 313 313 312 310 309 307 305 300 295 290 286 279 275
304 306 307 308 312 314 317 321 322 322 322 322 322 321 320 320 320 320 319 319 320 321 319 317 318 317 317 317 316 315 314 314 313 311 310 309 306 301 297 292 287 282 278
303 305 306 306 308 312 315 318 321 323 324 324 324 324 323 324 324 322 321 320 320 321 320 318 317 319 318 317 317 316 316 316 315 313 311 308 307 304 299 294 289 282 281
300 303 305 306 307 311 314 316 319 320 323 324 325 325 325 327 327 326 324 323 322 321 321 320 319 319 320 319 319 317 316 316 315 313 311 307 306 304 301 296 290 284 283
299 300 302 305 308 310 312 315 318 320 322 322 324 325 326 327 327 327 326 325 325 324 323 322 321 319 320 321 321 318 318 318 318 315 313 311 308 306 303 299 294 287 283
Height
5777 5773 5771 5769 5766 5763 5761 5758 5756 5753 5751 5748 5746 5744 5742 5740 5738 5736 5734 5732 5730 5729 5727 5725 5724 5722 5721 5720 5719 5719 5719 5719 5721 5722 5723 5724 5725 5727 5729 5731 5733 5735 5737
5774 5771 5769 5766 5763 5761 5758 5755 5753 5750 5748 5745 5743 5740 5738 5736 5734 5732 5730 5728 5726 5724 5722 5719 5717 5715 5714 5712 5711 5711 5711 5711 5712 5714 5714 5715 5716 5718 5719 5721 5723 5725 5727
5772 5769 5766 5763 5760 5758 5755 5752 5750 5747 5745 5742 5740 5737 5735 5732 5730 5728 5725 5723 5721 5719 5716 5714 5712 5709 5708 5706 5704 5704 5703 5703 5704 5705 5706 5706 5707 5708 5710 5712 5713 5715 5717
5769 5766 5763 5760 5758 5755 5752 5750 5747 5744 5742 5739 5736 5734 5731 5729 5726 5724 5721 5719 5716 5714 5711 5708 5706 5704 5702 5700 5698 5697 5696 5696 5696 5696 5697 5697 5698 5699 5700 5702 5704 5705 5707
5767 5764 5761 5758 5755 5752 5749 5747 5744 5741 5739 5736 5733 5730 5727 5725 5722 5720 5717 5714 5712 5709 5706 5703 5700 5698 5695 5693 5691 5690 5689 5689 5688 5688 5688 5688 5689 5690 5691 5692 5693 5695 5697
5764 5761 5758 5755 5752 5749 5746 5743 5741 5738 5735 5733 5730 5727 5724 5721 5718 5715 5712 5709 5706 5703 5700 5697 5694 5692 5690 5687 5685 5683 5682 5681 5680 5680 5679 5679 5680 5680 5681 5682 5683 5685 5687
5761 5758 5755 5752 5749 5746 5743 5740 5738 5735 5732 5729 5726 5723 5720 5717 5714 5710 5707 5704 5701 5698 5694 5691 5689 5686 5684 5682 5679 5677 5675 5674 5673 5672 5671 5670 5670 5671 5671 5672 5673 5674 5676
5758 5755 5752 5749 5746 5743 5740 5737 5734 5731 5729 5726 5723 5719 5716 5712 5709 5705 5702 5699 5696 5693 5689 5686 5683 5681 5678 5676 5674 5671 5669 5667 5666 5665 5664 5663 5662 5662 5662 5663 5664 5665 5666
5754 5752 5749 5746 5743 5739 5736 5733 5730 5727 5725 5721 5718 5715 5711 5708 5705 5701 5698 5694 5691 5687 5684 5681 5678 5676 5673 5670 5668 5665 5663 5661 5659 5657 5656 5655 5655 5654 5654 5654 5655 5656 5657
5751 5748 5745 5742 5739 5736 5732 5729 5726 5723 5720 5717 5714 5711 5707 5704 5700 5697 5693 5690 5686 5683 5679 5676 5673 5671 5668 5665 5662 5660 5657 5655 5653 5651 5650 5649 5648 5647 5647 5646 5646 5647 5647
5747 5744 5741 5738 5735 5731 5728 5725 5722 5719 5716 5713 5709 5706 5702 5699 5695 5692 5689 5685 5682 5678 5675 5672 5669 5666 5663 5660 5657 5654 5652 5650 5648 5646 5644 5642 5641 5640 5639 5639 5639 5639 5639
5742 5739 5736 5733 5730 5726 5723 5720 5717 5714 5711 5707 5704 5701 5697 5694 5690 5687 5683 5680 5676 5673 5670 5667 5664 5661 5658 5655 5652 5649 5647 5644 5642 5640 5638 5636 5635 5634 5633 5632 5631 5631 5631
5736 5733 5731 5728 5724 5721 5718 5715 5712 5708 5705 5702 5699 5695 5692 5688 5685 5682 5678 5675 5671 5668 5665 5662 5659 5656 5652 5649 5646 5643 5641 5638 5636 5634 5632 5630 5629 5627 5626 5625 5625 5624 5624
5731 5728 5725 5722 5719 5715 5712 5709 5706 5703 5700 5697 5694 5690 5687 5683 5680 5676 5673 5669 5666 5663 5660 5656 5653 5650 5647 5644 5640 5637 5635 5632 5629 5627 5625 5624 5622 5621 5620 5619 5619 5618 5618
5725 5722 5719 5716 5713 5710 5707 5703 5700 5697 5693 5691 5687 5684 5681 5678 5675 5671 5668 5664 5661 5658 5654 5651 5648 5644 5641 5638 5634 5631 5628 5625 5623 5621 5619 5617 5616 5614 5614 5613 5612 5612 5612
5719 5716 5713 5710 5707 5704 5701 5697 5694 5690 5687 5684 5681 5678 5674 5671 5668 5665 5662 5659 5656 5652 5649 5646 5642 5638 5635 5632 5628 5625 5622 5619 5617 5614 5612 5610 5609 5608 5607 5606 5606 5605 5605
5712 5710 5707 5704 5701 5698 5694 5691 5688 5684 5681 5678 5675 5671 5668 5665 5662 5659 5656 5653 5650 5646 5643 5640 5636 5633 5629 5625 5622 5619 5616 5613 5610 5608 5606 5604 5602 5601 5601 5600 5599 5599 5599
5706 5704 5701 5698 5695 5692 5688 5685 5682 5678 5676 5672 5669 5666 5663 5660 5657 5654 5650 5647 5644 5641 5637 5634 5631 5627 5624 5620 5617 5614 5610 5607 5604 5602 5600 5598 5597 5595 5594 5594 5593 5593 5592
5700 5697 5694 5692 5689 5686 5683 5679 5676 5673 5670 5667 5664 5661 5658 5655 5652 5649 5645 5642 5638 5635 5632 5628 5625 5622 5619 5615 5612 5609 5606 5603 5600 5597 5595 5593 5591 5590 5589 5588 5587 5586 5586
5693 5691 5688 5686 5683 5681 5678 5674 5671 5668 5665 5662 5659 5656 5653 5650 5647 5643 5640 5636 5633 5630 5626 5623 5620 5617 5614 5611 5607 5604 5601 5598 5595 5592 5590 5588 5586 5584 5583 5582 5581 5580 5580
5688 5685 5683 5680 5678 5676 5673 5670 5667 5663 5660 5657 5654 5651 5648 5645 5642 5638 5635 5631 5628 5625 5621 5618 5615 5612 5609 5606 5603 5599 5596 5593 5590 5588 5585 5583 5581 5579 5578 5577 5576 5575 5575
5682 5680 5678 5676 5674 5671 5668 5665 5662 5659 5656 5652 5649 5646 5643 5640 5637 5633 5630 5627 5623 5620 5616 5613 5610 5607 5604 5601 5598 5595 5592 5589 5586 5583 5581 5578 5576 5574 5573 5572 5571 5571 5570
5677 5675 5673 5671 5669 5666 5664 5661 5658 5654 5651 5648 5644 5641 5638 5635 5632 5628 5625 5622 5618 5615 5611 5608 5605 5602 5599 5596 5593 5590 5587 5584 5581 5579 5576 5574 5572 5570 5568 5567 5567 5566 5566
5671 5670 5668 5666 5664 5662 5659 5656 5653 5650 5647 5643 5640 5637 5634 5631 5627 5624 5620 5617 5614 5610 5607 5604 5600 5597 5594 5591 5588 5585 5582 5580 5577 5574 5572 5570 5568 5566 5564 5563 5563 5562 5562
5666 5664 5663 5661 5659 5657 5654 5652 5649 5646 5643 5639 5636 5633 5630 5627 5623 5620 5616 5613 5609 5606 5602 5599 5596 5593 5589 5586 5583 5581 5578 5575 5572 5570 5568 5566 5564 5562 5561 5560 5559 5559 5558
5660 5659 5657 5656 5654 5652 5650 5647 5644 5642 5639 5636 5633 5630 5627 5623 5620 5616 5612 5609 5605 5602 5598 5595 5591 5588 5585 5582 5579 5576 5574 5571 5568 5566 5564 5562 5560 5559 5558 5557 5556 5555 5555